User: anonymous   Login
Location: Kitchener
(43.4500°N, 80.5000°W)
Time: 10:00:48
(UTC-05:00)
Language:

ATLAS 5 CENTAUR R/B - Orbit

View from above orbital plane
View from above orbital plane
View from above satellite
View from above satellite

Ground track
Ground track

The orbit data is extracted from the following two-line orbital elements,

1 31702U 07027B   17311.69543897 0.00000080  00000-0  25235-4 0    05
2 31702  63.3622 164.6543 0291000   5.3784 354.6216 14.18592903    04
Epoch (UTC): 07 November 2017 16:41:25
Eccentricity: 0.0291000
inclination: 63.3622°
perigee height: 620 km
apogee height: 1040 km
right ascension of ascending node: 164.6543°
argument of perigee: 5.3784°
revolutions per day: 14.18592903
mean anomaly at epoch: 354.6216°
orbit number at epoch: 0

The dashed part of the orbit path shows where the satellite is in the earth's shadow,  

DLR